Time,TemperatureF,DewpointF,PressureIn,WindDirection,WindDirectionDegrees,WindSpeedMPH,WindSpeedGustMPH,Humidity,HourlyPrecipIn,Conditions,Clouds,dailyrainin,SoftwareType,DateUTC
2013-01-24 00:02:00,18.0,14.0,30.37,NNW,344,10.0,19.0,84,0.00,,,0.00,weatherlink.com 1.10,2013-01-24 06:02:00,
2013-01-24 00:17:00,17.8,15.0,30.39,North,351,11.0,22.0,87,0.00,,,0.00,weatherlink.com 1.10,2013-01-24 06:17:00,
2013-01-24 00:32:00,17.5,15.0,30.39,North,355,9.0,17.0,89,0.00,,,0.00,weatherlink.com 1.10,2013-01-24 06:32:00,
2013-01-24 00:47:00,17.4,15.0,30.41,NNE,13,19.0,19.0,90,0.00,,,0.00,weatherlink.com 1.10,2013-01-24 06:47:00,
2013-01-24 01:02:00,17.5,15.0,30.42,NNW,336,13.0,22.0,89,0.00,,,0.00,weatherlink.com 1.10,2013-01-24 07:02:00,
2013-01-24 01:17:00,18.0,14.0,30.42,North,11,9.0,22.0,85,0.00,,,0.00,weatherlink.com 1.10,2013-01-24 07:17:00,
2013-01-24 01:32:00,17.4,15.0,30.44,North,8,18.0,25.0,89,0.00,,,0.00,weatherlink.com 1.10,2013-01-24 07:32:00,
2013-01-24 01:47:00,17.2,15.0,30.45,NNW,337,11.0,16.0,89,0.00,,,0.00,weatherlink.com 1.10,2013-01-24 07:47:00,
2013-01-24 02:02:00,17.5,15.0,30.46,North,355,10.0,17.0,89,0.00,,,0.00,weatherlink.com 1.10,2013-01-24 08:02:00,
2013-01-24 02:17:00,17.6,15.0,30.47,NW,310,6.0,11.0,90,0.00,,,0.00,weatherlink.com 1.10,2013-01-24 08:17:00,
2013-01-24 02:32:00,17.6,15.0,30.48,NNW,341,11.0,17.0,90,0.00,,,0.00,weatherlink.com 1.10,2013-01-24 08:32:00,
2013-01-24 02:47:00,17.7,15.0,30.49,North,353,6.0,11.0,90,0.00,,,0.00,weatherlink.com 1.10,2013-01-24 08:47:00,
2013-01-24 03:02:00,16.3,14.0,30.50,NW,320,17.0,24.0,90,0.00,,,0.00,weatherlink.com 1.10,2013-01-24 09:02:00,
2013-01-24 03:18:00,14.8,12.0,30.50,NNW,337,13.0,21.0,90,0.00,,,0.00,weatherlink.com 1.10,2013-01-24 09:18:00,
2013-01-24 03:32:00,14.4,12.0,30.51,NW,320,12.0,19.0,90,0.00,,,0.00,weatherlink.com 1.10,2013-01-24 09:32:00,
2013-01-24 03:47:00,14.3,12.0,30.52,NNW,331,7.0,16.0,91,0.00,,,0.00,weatherlink.com 1.10,2013-01-24 09:47:00,
2013-01-24 04:02:00,13.7,11.0,30.52,NW,310,4.0,13.0,90,0.00,,,0.00,weatherlink.com 1.10,2013-01-24 10:02:00,
2013-01-24 04:17:00,13.6,12.0,30.53,WNW,296,5.0,12.0,91,0.00,,,0.00,weatherlink.com 1.10,2013-01-24 10:17:00,
2013-01-24 04:32:00,14.4,12.0,30.54,NNW,332,9.0,16.0,91,0.00,,,0.00,weatherlink.com 1.10,2013-01-24 10:32:00,
2013-01-24 04:47:00,14.8,13.0,30.54,NW,315,12.0,19.0,91,0.00,,,0.00,weatherlink.com 1.10,2013-01-24 10:47:00,
2013-01-24 05:03:00,14.8,13.0,30.55,NW,320,10.0,18.0,91,0.00,,,0.00,weatherlink.com 1.10,2013-01-24 11:03:00,
2013-01-24 05:18:00,14.8,13.0,30.57,NNW,341,8.0,13.0,91,0.00,,,0.00,weatherlink.com 1.10,2013-01-24 11:18:00,
2013-01-24 05:33:00,14.4,12.0,30.57,NW,320,9.0,15.0,91,0.00,,,0.00,weatherlink.com 1.10,2013-01-24 11:33:00,
2013-01-24 05:48:00,13.7,11.0,30.59,WNW,288,12.0,18.0,90,0.00,,,0.00,weatherlink.com 1.10,2013-01-24 11:48:00,
2013-01-24 06:03:00,12.2,10.0,30.59,WNW,286,3.0,13.0,90,0.00,,,0.00,weatherlink.com 1.10,2013-01-24 12:03:00,
2013-01-24 06:18:00,11.8,10.0,30.60,NW,310,9.0,14.0,90,0.00,,,0.00,weatherlink.com 1.10,2013-01-24 12:18:00,
2013-01-24 06:33:00,11.9,10.0,30.60,NW,315,7.0,11.0,90,0.00,,,0.00,weatherlink.com 1.10,2013-01-24 12:33:00,
2013-01-24 06:48:00,12.9,11.0,30.63,NNW,331,9.0,10.0,90,0.00,,,0.00,weatherlink.com 1.10,2013-01-24 12:48:00,
2013-01-24 07:03:00,13.5,11.0,30.63,NE,56,1.0,9.0,91,0.00,,,0.00,weatherlink.com 1.10,2013-01-24 13:03:00,
2013-01-24 07:18:00,13.9,12.0,30.63,NW,305,4.0,5.0,91,0.00,,,0.00,weatherlink.com 1.10,2013-01-24 13:18:00,
2013-01-24 07:33:00,14.3,12.0,30.64,NW,310,1.0,5.0,91,0.00,,,0.00,weatherlink.com 1.10,2013-01-24 13:33:00,
2013-01-24 07:48:00,14.6,13.0,30.64,NNW,331,2.0,3.0,91,0.00,,,0.00,weatherlink.com 1.10,2013-01-24 13:48:00,
2013-01-24 08:03:00,15.1,13.0,30.66,NNW,332,5.0,5.0,90,0.00,,,0.00,weatherlink.com 1.10,2013-01-24 14:03:00,
2013-01-24 08:18:00,15.6,13.0,30.67,NW,324,4.0,6.0,90,0.00,,,0.00,weatherlink.com 1.10,2013-01-24 14:18:00,
2013-01-24 08:33:00,15.5,13.0,30.68,NNW,341,3.0,5.0,89,0.00,,,0.00,weatherlink.com 1.10,2013-01-24 14:33:00,
2013-01-24 08:48:00,15.8,13.0,30.70,East,92,8.0,9.0,89,0.00,,,0.00,weatherlink.com 1.10,2013-01-24 14:48:00,
2013-01-24 09:04:00,16.4,13.0,30.71,ENE,74,5.0,10.0,86,0.00,,,0.00,weatherlink.com 1.10,2013-01-24 15:04:00,
2013-01-24 09:18:00,16.5,12.0,30.72,East,91,4.0,7.0,83,0.00,,,0.00,weatherlink.com 1.10,2013-01-24 15:18:00,
2013-01-24 09:34:00,16.7,12.0,30.72,ESE,117,3.0,6.0,81,0.00,,,0.00,weatherlink.com 1.10,2013-01-24 15:34:00,
2013-01-24 09:48:00,16.6,11.0,30.72,East,92,5.0,6.0,79,0.00,,,0.00,weatherlink.com 1.10,2013-01-24 15:48:00,
2013-01-24 10:03:00,16.7,10.0,30.72,ESE,122,3.0,8.0,76,0.00,,,0.00,weatherlink.com 1.10,2013-01-24 16:03:00,
2013-01-24 10:19:00,16.8,10.0,30.73,East,90,4.0,8.0,75,0.00,,,0.00,weatherlink.com 1.10,2013-01-24 16:19:00,
2013-01-24 10:33:00,17.3,10.0,30.73,ESE,118,2.0,6.0,73,0.00,,,0.00,weatherlink.com 1.10,2013-01-24 16:33:00,
2013-01-24 10:49:00,17.3,9.0,30.73,SE,127,1.0,5.0,69,0.00,,,0.00,weatherlink.com 1.10,2013-01-24 16:49:00,
2013-01-24 11:19:00,16.8,8.0,30.73,ESE,105,2.0,5.0,67,0.00,,,0.00,weatherlink.com 1.10,2013-01-24 17:19:00,
2013-01-24 11:34:00,16.7,7.0,30.72,SSE,155,7.0,7.0,67,0.00,,,0.00,weatherlink.com 1.10,2013-01-24 17:34:00,
2013-01-24 11:49:00,16.7,7.0,30.72,SE,141,6.0,7.0,66,0.00,,,0.00,weatherlink.com 1.10,2013-01-24 17:49:00,
2013-01-24 12:04:00,16.6,7.0,30.70,SE,126,2.0,8.0,67,0.00,,,0.00,weatherlink.com 1.10,2013-01-24 18:04:00,
2013-01-24 12:19:00,17.0,8.0,30.70,SSE,157,6.0,7.0,68,0.00,,,0.00,weatherlink.com 1.10,2013-01-24 18:19:00,
2013-01-24 12:34:00,17.2,8.0,30.70,SSE,157,3.0,9.0,68,0.00,,,0.00,weatherlink.com 1.10,2013-01-24 18:34:00,
2013-01-24 12:49:00,17.4,8.0,30.69,SSE,157,7.0,9.0,66,0.00,,,0.00,weatherlink.com 1.10,2013-01-24 18:49:00,
2013-01-24 13:04:00,17.8,9.0,30.69,SSE,162,4.0,7.0,68,0.00,,,0.00,weatherlink.com 1.10,2013-01-24 19:04:00,
2013-01-24 13:19:00,17.2,10.0,30.68,SSW,195,3.0,5.0,72,0.00,,,0.00,weatherlink.com 1.10,2013-01-24 19:19:00,
2013-01-24 13:34:00,17.5,10.0,30.68,SSW,195,3.0,5.0,71,0.00,,,0.00,weatherlink.com 1.10,2013-01-24 19:34:00,
2013-01-24 13:49:00,17.4,10.0,30.68,South,176,1.0,4.0,71,0.00,,,0.00,weatherlink.com 1.10,2013-01-24 19:49:00,
2013-01-24 14:04:00,17.4,10.0,30.67,South,175,4.0,5.0,71,0.00,,,0.00,weatherlink.com 1.10,2013-01-24 20:04:00,
2013-01-24 14:19:00,17.7,9.0,30.67,South,189,3.0,4.0,69,0.00,,,0.00,weatherlink.com 1.10,2013-01-24 20:19:00,
2013-01-24 14:34:00,17.9,9.0,30.67,South,172,4.0,7.0,68,0.00,,,0.00,weatherlink.com 1.10,2013-01-24 20:34:00,
2013-01-24 14:49:00,18.0,8.0,30.67,SE,145,3.0,6.0,66,0.00,,,0.00,weatherlink.com 1.10,2013-01-24 20:49:00,
2013-01-24 15:04:00,18.1,8.0,30.67,SSE,155,3.0,7.0,65,0.00,,,0.00,weatherlink.com 1.10,2013-01-24 21:04:00,
2013-01-24 15:19:00,18.0,8.0,30.66,SSE,153,2.0,7.0,66,0.00,,,0.00,weatherlink.com 1.10,2013-01-24 21:19:00,
2013-01-24 15:34:00,18.0,8.0,30.66,East,101,3.0,5.0,66,0.00,,,0.00,weatherlink.com 1.10,2013-01-24 21:34:00,
2013-01-24 15:49:00,18.2,8.0,30.66,ESE,108,2.0,6.0,65,0.00,,,0.00,weatherlink.com 1.10,2013-01-24 21:49:00,
2013-01-24 16:04:00,18.0,8.0,30.66,SE,126,1.0,5.0,65,0.00,,,0.00,weatherlink.com 1.10,2013-01-24 22:04:00,
2013-01-24 16:19:00,18.0,9.0,30.65,ESE,105,2.0,5.0,67,0.00,,,0.00,weatherlink.com 1.10,2013-01-24 22:19:00,
2013-01-24 16:34:00,17.8,9.0,30.65,East,97,4.0,5.0,68,0.00,,,0.00,weatherlink.com 1.10,2013-01-24 22:34:00,
2013-01-24 16:49:00,17.5,9.0,30.64,East,97,1.0,2.0,69,0.00,,,0.00,weatherlink.com 1.10,2013-01-24 22:49:00,
2013-01-24 17:04:00,17.4,9.0,30.64,East,92,1.0,3.0,69,0.00,,,0.00,weatherlink.com 1.10,2013-01-24 23:04:00,
2013-01-24 17:19:00,17.2,8.0,30.63,East,92,4.0,4.0,68,0.00,,,0.00,weatherlink.com 1.10,2013-01-24 23:19:00,
2013-01-24 17:34:00,17.2,8.0,30.64,ESE,108,1.0,5.0,67,0.00,,,0.00,weatherlink.com 1.10,2013-01-24 23:34:00,
2013-01-24 17:49:00,17.1,8.0,30.64,SE,124,1.0,5.0,67,0.00,,,0.00,weatherlink.com 1.10,2013-01-24 23:49:00,
2013-01-24 18:04:00,17.1,8.0,30.63,ESE,110,1.0,4.0,67,0.00,,,0.00,weatherlink.com 1.10,2013-01-25 00:04:00,
2013-01-24 18:19:00,17.3,8.0,30.62,ESE,114,2.0,6.0,66,0.00,,,0.00,weatherlink.com 1.10,2013-01-25 00:19:00,
2013-01-24 18:34:00,17.5,8.0,30.62,East,101,1.0,7.0,65,0.00,,,0.00,weatherlink.com 1.10,2013-01-25 00:34:00,
2013-01-24 18:49:00,17.5,8.0,30.62,ESE,120,1.0,6.0,65,0.00,,,0.00,weatherlink.com 1.10,2013-01-25 00:49:00,
2013-01-24 19:04:00,17.7,8.0,30.61,ESE,105,3.0,5.0,65,0.00,,,0.00,weatherlink.com 1.10,2013-01-25 01:04:00,
2013-01-24 19:19:00,17.7,8.0,30.60,East,93,7.0,9.0,65,0.00,,,0.00,weatherlink.com 1.10,2013-01-25 01:19:00,
2013-01-24 19:34:00,17.7,8.0,30.60,ESE,120,1.0,8.0,66,0.00,,,0.00,weatherlink.com 1.10,2013-01-25 01:34:00,
2013-01-24 19:49:00,17.6,8.0,30.59,ESE,114,3.0,7.0,66,0.00,,,0.00,weatherlink.com 1.10,2013-01-25 01:49:00,
2013-01-24 20:04:00,17.6,8.0,30.58,ESE,117,3.0,9.0,67,0.00,,,0.00,weatherlink.com 1.10,2013-01-25 02:04:00,
2013-01-24 20:20:00,17.5,8.0,30.56,ESE,105,4.0,9.0,67,0.00,,,0.00,weatherlink.com 1.10,2013-01-25 02:20:00,
2013-01-24 20:34:00,17.5,9.0,30.57,ESE,116,2.0,7.0,68,0.00,,,0.00,weatherlink.com 1.10,2013-01-25 02:34:00,
2013-01-24 20:50:00,17.5,9.0,30.56,ESE,118,2.0,8.0,69,0.00,,,0.00,weatherlink.com 1.10,2013-01-25 02:50:00,
2013-01-24 21:04:00,17.5,9.0,30.56,ESE,107,2.0,8.0,69,0.00,,,0.00,weatherlink.com 1.10,2013-01-25 03:04:00,
2013-01-24 21:19:00,17.5,9.0,30.56,SE,142,4.0,7.0,70,0.00,,,0.00,weatherlink.com 1.10,2013-01-25 03:19:00,
2013-01-24 21:34:00,17.5,10.0,30.57,ESE,118,3.0,5.0,71,0.00,,,0.00,weatherlink.com 1.10,2013-01-25 03:34:00,
2013-01-24 21:49:00,17.6,10.0,30.55,SE,131,4.0,7.0,71,0.00,,,0.00,weatherlink.com 1.10,2013-01-25 03:49:00,
2013-01-24 22:05:00,17.6,10.0,30.55,ESE,110,4.0,6.0,71,0.00,,,0.00,weatherlink.com 1.10,2013-01-25 04:05:00,
2013-01-24 22:19:00,17.7,10.0,30.54,ESE,120,3.0,6.0,72,0.00,,,0.00,weatherlink.com 1.10,2013-01-25 04:19:00,
2013-01-24 22:35:00,17.6,10.0,30.53,ESE,108,4.0,7.0,72,0.00,,,0.00,weatherlink.com 1.10,2013-01-25 04:35:00,
2013-01-24 22:49:00,17.7,10.0,30.52,SE,128,3.0,7.0,72,0.00,,,0.00,weatherlink.com 1.10,2013-01-25 04:49:00,
2013-01-24 23:04:00,17.7,10.0,30.50,ESE,110,3.0,8.0,73,0.00,,,0.00,weatherlink.com 1.10,2013-01-25 05:04:00,
2013-01-24 23:19:00,17.6,11.0,30.50,SSE,151,4.0,6.0,74,0.00,,,0.00,weatherlink.com 1.10,2013-01-25 05:19:00,
2013-01-24 23:35:00,17.7,11.0,30.50,SE,138,1.0,7.0,75,0.00,,,0.00,weatherlink.com 1.10,2013-01-25 05:35:00,
2013-01-24 23:49:00,17.9,11.0,30.50,SE,137,2.0,7.0,75,0.00,,,0.00,weatherlink.com 1.10,2013-01-25 05:49:00,